This is the latest recevied weather packets stored in our database for station/object KQ4JKJ. If no packets are shown the sender has not sent any weather packets the latest 10 day(s).
| Time | Temp. | Humidity | Pressure | Rain* | Wind** | Luminosity | Snow |
|---|---|---|---|---|---|---|---|
| 1777584723 | 32.22° C | 50% | 1002.9 hPa | 0 mm | - | 135 W/m² | - |
| 1777584421 | 31.67° C | 50% | 1002.9 hPa | 0 mm | - | 261 W/m² | - |
| 1777584117 | 31.67° C | 51% | 1003.1 hPa | 0 mm | - | 237 W/m² | - |
| 1777583816 | 31.67° C | 51% | 1003 hPa | 0 mm | - | 123 W/m² | - |
| 1777583512 | 31.67° C | 51% | 1003.2 hPa | 0 mm | - | 146 W/m² | - |
| 1777583206 | 32.22° C | 50% | 1002.8 hPa | 0 mm | - | 139 W/m² | - |
| 1777582901 | 31.67° C | 51% | 1003 hPa | 0 mm | - | 425 W/m² | - |
| 1777582599 | 32.22° C | 50% | 1003 hPa | 0 mm | - | 162 W/m² | - |
| 1777582293 | 32.78° C | 50% | 1003.3 hPa | 0 mm | - | 170 W/m² | - |
| 1777581991 | 32.22° C | 51% | 1003.3 hPa | 0 mm | - | 164 W/m² | - |
| 1777581686 | 32.22° C | 51% | 1003.1 hPa | 0 mm | - | 369 W/m² | - |
| 1777581380 | 32.22° C | 50% | 1003.2 hPa | 0 mm | - | 158 W/m² | - |
| 1777581075 | 33.33° C | 48% | 1003.2 hPa | 0 mm | - | 466 W/m² | - |
| 1777580774 | 33.33° C | 50% | 1003.5 hPa | 0 mm | - | 371 W/m² | - |
| 1777580471 | 32.78° C | 49% | 1003.6 hPa | 0 mm | - | 230 W/m² | - |
| 1777580171 | 33.33° C | 49% | 1003.4 hPa | 0 mm | - | 247 W/m² | - |
| 1777579868 | 33.33° C | 49% | 1003.5 hPa | 0 mm | - | 512 W/m² | - |
| 1777579563 | 33.89° C | 49% | 1003.5 hPa | 0 mm | - | 236 W/m² | - |
| 1777579261 | 33.33° C | 51% | 1003.7 hPa | 0 mm | - | 568 W/m² | - |
| 1777578958 | 33.33° C | 50% | 1003.8 hPa | 0 mm | - | 217 W/m² | - |
| 1777578653 | 33.33° C | 49% | 1003.8 hPa | 0 mm | - | 582 W/m² | - |
| 1777578351 | 33.33° C | 50% | 1003.8 hPa | 0 mm | - | 627 W/m² | - |
| 1777578048 | 33.89° C | 49% | 1003.9 hPa | 0 mm | - | 574 W/m² | - |
| 1777577743 | 33.33° C | 49% | 1003.9 hPa | 0 mm | - | 620 W/m² | - |
| 1777577440 | 33.89° C | 47% | 1004 hPa | 0 mm | - | 623 W/m² | - |
* Rain latest hour (hover to see other rain measurements)
** Current wind speed in m/s (hover to see current wind gust speed)